Simultaneous Nadir Overpasses (SNOs) Predictions

Prediction of SNOs between GOES-14 and NOAA-20 Satellite Orbit:

Table of predicted SNOs for the next 14.0 days since TLE Epoch: 12/7/2018
Index Date Time (GOES-14) GOES-14 Lat,Lon NOAA-20 Lat,Lon Distance(km) Time Diff (sec)
1 12/08/2018 08:26:04 0.02,-104.21 0.21,-104.99 88.80 80
2 12/09/2018 08:04:39 0.03,-104.21 -0.83,-100.46 427.53 80
3 12/10/2018 20:26:35 -0.01,-104.02 -0.40,-105.75 196.97 80
4 12/11/2018 20:10:29 -0.02,-104.03 0.58,-101.21 320.61 80
5 12/13/2018 08:32:18 0.00,-104.23 0.53,-106.49 258.22 80
6 12/14/2018 08:10:53 0.01,-104.22 -0.51,-101.96 258.33 80
7 12/15/2018 20:32:48 0.01,-104.02 -0.71,-107.25 367.96 80
8 12/16/2018 20:16:43 -0.00,-104.03 0.27,-102.71 149.71 80
9 12/18/2018 08:38:31 -0.02,-104.25 0.84,-107.99 426.99 80
10 12/19/2018 08:17:07 -0.00,-104.24 -0.20,-103.46 89.64 80




NCC Satellite Simultaneous Nadir Overpasses (SNOs) Prediction Service
